User: anonymous   Login
Location: Estes Par
(40.3770°N, 105.5210°W)
Time: 19:26:48
(UTC-06:00)
Language:

XW-2D - Orbit

View from above orbital plane
View from above orbital plane
View from above satellite
View from above satellite

Ground track
Ground track

The orbit data is extracted from the following two-line orbital elements,

1 40907U 15049J   18226.51061629  .00000464  00000-0  28014-4 0  9991
2 40907  97.4586 228.6294 0014321 178.8248 181.3021 15.15421912160333
Epoch (UTC): 14 August 2018 12:15:17
Eccentricity: 0.0014321
inclination: 97.4586°
perigee height: 510 km
apogee height: 529 km
right ascension of ascending node: 228.6294°
argument of perigee: 178.8248°
revolutions per day: 15.15421912
mean anomaly at epoch: 181.3021°
orbit number at epoch: 16033

The dashed part of the orbit path shows where the satellite is in the earth's shadow,  

DLR